Ahmedabad, India

9:46 PM IST on August 21, 2017 (GMT +0530)
Ahmedabad

Weather History for VAAH - October, 2012

Change the Weather History Date:

Wednesday, October 17, 2012

  Actual Average Record
Temperature  
Mean Temperature 82 °F -  
Max Temperature 95 °F 90 °F 102 °F (2006)
Min Temperature 68 °F 65 °F 35 °F (1999)
Cooling Degree Days 16    
Growing Degree Days 32 (Base 50)    
Moisture  
Dew Point 67 °F    
Average Humidity 61    
Maximum Humidity 88    
Minimum Humidity 31    
Precipitation  
Precipitation 0.00 in 0.02 in - ()
Sea Level Pressure  
Sea Level Pressure 29.93 in    
Wind  
Wind Speed 2 mph ()    
Max Wind Speed 5 mph    
Max Gust Speed -    
Visibility 2.6 miles    
Events      
Averages and records for this station are not official NWS values.
T = Trace of Precipitation, MM = Missing Value Source: Averaged Metar Reports

Daily Weather History Graph

Daily Weather History Graph

Search for Another Location

Airport or City:

Trip Planner

Search our weather history database for the weather conditions in past years. The results will help you decide how hot, cold, wet, or windy it might be!

Date:

Astronomy

Oct. 17, 2012 Rise Set
Actual Time 6:37 AM IST 6:12 PM IST
Civil Twilight 6:14 AM IST 6:34 PM IST
Nautical Twilight 5:48 AM IST 7:01 PM IST
Astronomical Twilight 5:22 AM IST 7:27 PM IST
Moon 8:22 AM IST (10/17) 7:43 PM IST (10/17)
Length of Visible Light 12h 20m
Length of Day
11h 34m
Waxing Crescent, 5% of the Moon is Illuminated
Oct 17
Waxing Crescent
Oct 22
First Quarter
Oct 30
Full
Nov 7
Last Quarter
Nov 14
New

Hourly Weather History & Observations

Time (IST) Temp. Heat Index Dew Point Humidity Pressure Visibility Wind Dir Wind Speed Gust Speed Precip Events Conditions
12:10 AM 77.0 °F - 68.0 °F 74% 29.95 in 1.9 mi Calm Calm - N/A   Haze
12:40 AM 75.2 °F - 69.8 °F 83% 29.95 in 1.9 mi North 3.5 mph - N/A   Haze
1:10 AM 73.4 °F - 69.8 °F 88% 29.95 in 1.9 mi North 3.5 mph - N/A   Haze
1:40 AM 73.4 °F - 64.4 °F 73% 29.95 in 1.9 mi NNE 3.5 mph - N/A   Haze
2:10 AM 73.4 °F - 64.4 °F 73% 29.95 in 1.9 mi NNE 3.5 mph - N/A   Haze
2:30 AM 73 °F - 66 °F 73% 29.96 in 1 mi Calm Calm - -   Haze
2:40 AM 73.4 °F - 64.4 °F 73% 29.95 in 1.9 mi NNW 3.5 mph - N/A   Haze
3:10 AM 71.6 °F - 66.2 °F 83% 29.95 in 1.9 mi North 3.5 mph - N/A   Haze
3:40 AM 71.6 °F - 64.4 °F 78% 29.95 in 1.9 mi North 3.5 mph - N/A   Haze
4:10 AM 71.6 °F - 64.4 °F 78% 29.95 in 1.9 mi North 3.5 mph - N/A   Haze
4:40 AM 71.6 °F - 68.0 °F 88% 29.95 in 1.9 mi North 3.5 mph - N/A   Haze
5:10 AM 71.6 °F - 66.2 °F 83% 29.95 in 1.9 mi NNW 3.5 mph - N/A   Mist
5:30 AM 73 °F - 64 °F 65% 29.96 in 1 mi NW 3.5 mph - -   Haze
5:40 AM 71.6 °F - 64.4 °F 78% 29.95 in 1.9 mi NW 3.5 mph - N/A   Mist
6:10 AM 69.8 °F - 64.4 °F 83% 29.95 in 1.9 mi North 3.5 mph - N/A   Haze
6:40 AM 69.8 °F - 62.6 °F 78% 29.98 in 1.6 mi NNE 3.5 mph - N/A   Haze
7:10 AM 69.8 °F - 64.4 °F 83% 29.98 in 1.6 mi NNE 3.5 mph - N/A   Haze
7:40 AM 73.4 °F - 66.2 °F 78% 29.98 in 1.6 mi NNE 3.5 mph - N/A   Haze
8:30 AM 78 °F - 63 °F 51% 29.99 in 2 mi North 2.3 mph - -   Haze
8:40 AM 80.6 °F 82.3 °F 64.4 °F 58% 29.98 in 1.6 mi ENE 3.5 mph - N/A   Haze
9:10 AM 82.4 °F 84.6 °F 66.2 °F 58% 30.01 in 1.9 mi NE 3.5 mph - N/A   Haze
9:40 AM 84.2 °F 87.3 °F 68.0 °F 58% 30.01 in 1.9 mi NE 3.5 mph - N/A   Haze
10:40 AM 87.8 °F 93.8 °F 71.6 °F 58% 30.01 in 2.5 mi North 3.5 mph - N/A   Smoke
11:10 AM 89.6 °F 98.2 °F 73.4 °F 59% 29.98 in 3.1 mi North 3.5 mph - N/A   Smoke
11:30 AM 89 °F - 70 °F 44% 30.00 in 2 mi North 2.3 mph - -  
11:40 AM 91.4 °F 100.1 °F 73.4 °F 55% 29.98 in 3.7 mi NE 3.5 mph - N/A   Unknown
12:10 PM 93.2 °F 102.4 °F 73.4 °F 52% 29.95 in 3.7 mi NNE 3.5 mph - N/A   Unknown
12:40 PM 93.2 °F 98.8 °F 69.8 °F 46% 29.95 in 3.7 mi NE 3.5 mph - N/A   Unknown
1:10 PM 95.0 °F 99.5 °F 68.0 °F 41% 29.92 in 3.7 mi ENE 3.5 mph - N/A   Unknown
1:40 PM 96.8 °F 100.7 °F 66.2 °F 37% 29.92 in 3.7 mi Calm Calm - N/A   Unknown
2:10 PM 96.8 °F 100.7 °F 66.2 °F 37% 29.89 in 5.0 mi NNE 3.5 mph - N/A   Unknown
2:40 PM 96.8 °F 100.7 °F 66.2 °F 37% 29.89 in 5.0 mi NNE 3.5 mph - N/A   Unknown
3:10 PM 96.8 °F 100.7 °F 66.2 °F 37% 29.86 in 5.0 mi NNE 3.5 mph - N/A   Unknown
3:40 PM 96.8 °F 100.7 °F 66.2 °F 37% 29.86 in 5.0 mi NNE 3.5 mph - N/A   Unknown
4:10 PM 96.8 °F 98.0 °F 62.6 °F 32% 29.86 in 5.0 mi North 3.5 mph - N/A   Unknown
4:40 PM 96.8 °F 99.0 °F 64.4 °F 34% 29.86 in 5.0 mi NNE 3.5 mph - N/A   Unknown
5:10 PM 95.0 °F 96.0 °F 62.6 °F 34% 29.86 in 5.0 mi NNE 3.5 mph - N/A   Unknown
5:30 PM 92 °F - 65 °F 31% 29.90 in 2 mi Calm Calm - -  
5:40 PM 93.2 °F 96.2 °F 66.2 °F 41% 29.86 in 3.7 mi Calm Calm - N/A   Unknown
6:10 PM 91.4 °F 93.2 °F 64.4 °F 41% 29.86 in 3.7 mi ENE 3.5 mph - N/A   Unknown
6:40 PM 89.6 °F 91.1 °F 64.4 °F 43% 29.86 in 2.5 mi East 3.5 mph - N/A   Unknown
7:40 PM 87.8 °F 90.4 °F 66.2 °F 49% 29.89 in 2.5 mi East 3.5 mph - N/A   Unknown
8:10 PM 84.2 °F 85.6 °F 64.4 °F 51% 29.92 in 2.5 mi ENE 3.5 mph - N/A   Smoke
8:30 PM 80 °F - 67 °F 56% 29.93 in 1 mi Calm Calm - -   Haze
8:40 PM 82.4 °F 84.6 °F 66.2 °F 58% 29.92 in 2.5 mi NE 3.5 mph - N/A   Smoke
9:10 PM 82.4 °F 85.4 °F 68.0 °F 62% 29.92 in 2.5 mi NNE 3.5 mph - N/A   Smoke
9:40 PM 80.6 °F 84.6 °F 71.6 °F 74% 29.92 in 2.5 mi Calm Calm - N/A   Haze
10:10 PM 78.8 °F - 71.6 °F 78% 29.92 in 2.5 mi Calm Calm - N/A   Haze
10:40 PM 77.0 °F - 71.6 °F 83% 29.92 in 2.5 mi Calm Calm - N/A   Haze
11:10 PM 77.0 °F - 71.6 °F 83% 29.92 in 2.5 mi Calm Calm - N/A   Haze
11:30 PM 75 °F - 67 °F 69% 29.93 in 1 mi Calm Calm - -   Haze
11:40 PM 77.0 °F - 71.6 °F 83% 29.92 in 2.5 mi North 4.6 mph - N/A   Haze